Regional Weather Roundup
Issued by NWS

Home | Current Version | Previous Version | Graphics & Text | Print | Product List | Glossary On
Versions: 1 2 3 4 5 6 7 8 9 10 11 12 13 14 15 16 17 18 19 20 21 22 23 24 25 26 27 28 29 30 31 32 33 34 35 36 37 38 39 40 41 42 43 44 45 46 47 48 49 50
000
ASUS45 KCYS 230110
RWRWY

WYOMING REGIONAL WEATHER ROUNDUP
NATIONAL WEATHER SERVICE CHEYENNE WY
700 PM MDT MON SEP 22 2014

NOTE:  "FAIR" INDICATES FEW OR NO CLOUDS BELOW 12,000 FEET
WITH NO SIGNIFICANT WEATHER AND/OR OBSTRUCTIONS TO VISIBILITY.

WYZ001-230200-
YELLOWSTONE NATIONAL PARK

CITY           SKY/WX    TMP DP  RH WIND       PRES   REMARKS
LK YELLOWSTONE   N/A     50  47  89 CALM      30.27R
W YELLOWSTONE  NOT AVBL

$$
WYZ002>013-054>058-071-098>099-230200-
NORTHERN WYOMING

CITY           SKY/WX    TMP DP  RH WIND       PRES   REMARKS
JACKSON        PTCLDY    55  46  71 S12       30.20R
CODY           PTCLDY    68  43  40 SW13G23   30.02S
GREYBULL       MOCLDY    74  45  35 S7        29.93S
WORLAND        CLOUDY    72  47  40 CALM      29.96R
SHERIDAN       CLOUDY    67  49  52 CALM      29.94S
BUFFALO        CLOUDY    66  44  45 W12       30.01S
GILLETTE       CLOUDY    67  50  54 W7        29.94R
HULETT         FAIR      70  45  40 MISG      29.95
NEWCASTLE      LGT RAIN  68  46  45 E13       30.00

$$
WYZ014>020-022>026-101>103-230200-
CENTRAL WYOMING

CITY           SKY/WX    TMP DP  RH WIND       PRES   REMARKS
BIG PINEY      MOCLDY    55  48  77 NE9       30.25S
PINEDALE       MOCLDY    54  43  66 NW9       30.26R
DUBOIS         MOCLDY    55  39  54 NW13      30.20R
LANDER         PTCLDY    67  39  35 W9        30.05R
RIVERTON       CLOUDY    68  40  35 NW21G28   30.06R
CASPER         CLOUDY    68  40  35 SW8       30.04R
DOUGLAS        MOCLDY    65  47  52 SE6       30.04F

$$
WYZ021-027>030-104>119-230200-
SOUTHERN WYOMING

CITY           SKY/WX    TMP DP  RH WIND       PRES   REMARKS
EVANSTON       PTCLDY    60  43  53 W8        30.25S
KEMMERER       MOCLDY    59  43  55 W13       30.25S
FORT BRIDGER   MOCLDY    63  43  46 W12G21    30.27S
ROCK SPRINGS   CLOUDY    61  43  51 NW10      30.21R
DIXON          CLOUDY    56  51  84 E6        30.24S
RAWLINS        MOCLDY    59  46  62 SW14      30.19S
SARATOGA       FAIR      54  46  76 SW9       30.22F
LARAMIE        CLOUDY    56  41  57 SW12      30.23F
CHEYENNE       CLOUDY    64  46  52 NW12      30.17R
TORRINGTON     PTCLDY    63  56  78 SE6       30.04R
PINE BLUFFS    MOCLDY    64  52  63 NW13      30.12R

$$


USA.gov is the U.S. government's official web portal to all federal, state and local government web resources and services.